Back to catalog

USA 441

AliveMilitaryVLEO
NORAD 62340·PAYLOAD·🇺🇸 United States

Launched Dec 17, 2024 from Vandenberg Space Force Base

Loading…

Next Passes (next 24 hours)

TLE

StaleSource: Mike McCants

Epoch: Aug 12, 2026, 22:20 UTC

1 62340U 24243A   26224.93124684 0.00000000  00000-0  00000-0 0    06
2 62340  70.0230 154.3919 0003000 187.8533 172.1466 14.96713884    07

Track USA 441 in real time with AllMySat

Download on the App Store